Location: Newark
(52.3735°N, 16.9806°E)
Time: 02:08:11
(UTC+00:00)

XW-2B - Visible Passes

Search period start: 29 November 2021 00:00
Search period end: 09 December 2021 00:00
Orbit: 504 x 522 km, 97.5° (Epoch: 28 November)

Date Brightness Start Highest point End Pass type
(mag) Time Alt. Az. Time Alt. Az. Time Alt. Az.
29 Nov ? 04:17:00 10° NE 04:20:12 25° E 04:23:23 10° SSE visible
29 Nov ? 05:50:48 10° N 05:54:18 35° WNW 05:57:47 10° SW visible
29 Nov ? 16:36:14 10° SSW 16:39:34 31° W 16:42:58 10° NNW visible
30 Nov ? 04:01:49 10° NE 04:04:30 18° E 04:07:09 10° SE visible
30 Nov ? 05:35:05 10° N 05:38:47 50° WNW 05:42:28 10° SW visible
30 Nov ? 16:20:20 10° S 16:23:55 45° W 16:27:34 10° NNW visible
01 Dec ? 03:46:59 10° ENE 03:48:44 13° E 03:50:30 10° ESE visible
01 Dec ? 05:19:26 10° N 05:23:14 73° WNW 05:27:02 10° SSW visible
01 Dec ? 16:04:34 10° S 16:08:17 67° WSW 16:12:04 10° NNW visible
02 Dec ? 05:03:50 10° NNE 05:07:39 77° ESE 05:11:28 10° S visible
02 Dec ? 15:48:57 10° SSE 15:52:41 83° ENE 15:56:29 10° NNW visible
02 Dec ? 17:26:11 10° WSW 17:27:16 11° W 17:28:21 10° WNW visible
03 Dec ? 04:48:17 10° NNE 04:52:02 52° E 04:55:45 10° S visible
03 Dec ? 15:33:27 10° SSE 15:37:08 56° ENE 15:40:51 10° N visible
03 Dec ? 17:09:09 10° SW 17:11:30 16° W 17:13:51 10° NW visible
04 Dec ? 04:32:50 10° NNE 04:36:23 36° E 04:39:54 10° SSE visible
04 Dec ? 15:18:05 10° SE 15:21:35 39° ENE 15:25:08 10° N visible
04 Dec ? 16:52:46 10° SW 16:55:45 22° W 16:58:45 10° NW visible
05 Dec ? 04:17:28 10° NE 04:20:42 25° E 04:23:53 10° SSE visible
05 Dec ? 05:51:17 10° N 05:54:46 35° WNW 05:58:15 10° SW visible
05 Dec ? 16:36:41 10° SSW 16:40:02 31° W 16:43:26 10° NNW visible
06 Dec ? 04:02:16 10° NE 04:04:57 18° E 04:07:38 10° SE visible
06 Dec ? 05:35:32 10° N 05:39:14 49° WNW 05:42:55 10° SW visible
06 Dec ? 16:20:45 10° S 16:24:21 45° W 16:28:01 10° NNW visible
07 Dec ? 03:47:23 10° ENE 03:49:11 13° E 03:50:58 10° ESE visible
07 Dec ? 05:19:51 10° N 05:23:40 73° WNW 05:27:28 10° SSW visible
07 Dec ? 16:04:58 10° S 16:08:42 67° WSW 16:12:29 10° NNW visible
08 Dec ? 05:04:14 10° NNE 05:08:04 78° ESE 05:11:52 10° S visible
08 Dec ? 15:49:19 10° SSE 15:53:05 84° ENE 15:56:54 10° NNW visible
08 Dec ? 17:26:34 10° WSW 17:27:40 11° W 17:28:46 10° WNW visible
